THORAD DELTA 1 DEB, 42593

Orbit data source: Space-Track

THORAD DELTA 1 DEB, 42593 is space debris in LEO originally from a launch on Fri, 15 Nov 1974 UTC launched from the Air Force Western Test Range (AFWTR). Debris objects in space refer to the collection of defunct objects orbiting the Earth. Examples of debris include non-operational satellites, rocket bodies, and fragments generated from explosions, collisions, or faulty payload assembly.

Loading next visibility...
Identifier
42593, 1974-089FJ
Orbit
LEO
Country
Flag of USUS
Related business
Manufacturer
Unknown
Mission
Spacecraft
Bus & Motor
Unknown
Mass
Unknown
Launch date (UTC)
1974-11-15 (51 years ago)
Launch vehicle
Unknown
Launch site
Air Force Western Test Range (AFWTR)
Object type
Payload
Rocket body
Debris
Shape & HBR
Unknown shape, 0.1 m
Radar Cross Section
Small (<0.1 m²)

Expand to show TLE details & history
Last TLE update: 2 days ago

TLE from 2 days ago
0 THORAD DELTA 1 DEB
1 42593U 74089FJ  26070.01406462 -.00000055  00000-0 -27249-3 0  9998
2 42593 101.1973 333.3246 0369391 152.7764 221.2193 11.83929023531641
Epoch: 2026-03-11T00:20Z
TLE epoch observation values (Epoch: 2026-03-11T00:20:15.183Z)
Latitude
11.04202°
Longitude
157.37329°
Altitude
1,985.991 km
Speed
6.807 km/s
True Right ascension
22h 04m 29s
True Declination
10° 59' 13"
Sunlit
Object was in daylight at epoch
Visualization orbit readout
Latitude
Unknown
Longitude
Unknown
Altitude
Unknown
Speed
Unknown
Apparent Right ascension
Unknown
Apparent Declination
Unknown
Sunlit
N/A
Visualization observer readout
Local Sidereal Time
17:11:21
Azimuth
Unknown
Elevation
Unknown
Doppler factor
Unknown
Orbital elements
Apogee altitude
2,051.517 km
Perigee altitude
1,450.934 km
Semi-major axis
8,129.362 km
Eccentricity
0.03694
Inclination
101.1973°
RAAN
333.3246°
Arg. of periapsis
152.7764°
True anomaly
218.52479°
Mean anomaly
221.2193°
Eccentric anomaly
219.86276°
Mean motion
2.96114 °/min
Orbital period
121.57 mins
BSTAR
-0.00027249
Loading maneuver chart data...
Computing Atmospheric mass density...

Documentation

Showing up to 5 results
|